Regional Weather Roundup
Issued by NWS

Home | Current Version | Previous Version | Text Only | Print | Product List | Glossary Off
Versions: 1 2 3 4 5 6 7 8 9 10 11 12 13 14 15 16 17 18 19 20 21 22 23 24 25 26 27 28

000
ASUS45 KTFX 231710
RWRMT
MONTANA REGIONAL WEATHER ROUNDUP
NATIONAL WEATHER SERVICE GREAT FALLS MT
1000 AM MST FRI FEB 23 2018

NOTE: "FAIR" INDICATES FEW OR NO CLOUDS BELOW 12000 FEET WITH NO
SIGNIFICANT WEATHER AND/OR OBSTRUCTIONS TO VISIBILITY.

MTZ001>007-043-231800-
WEST OF THE DIVIDE

CITY           SKY/WX    TMP DP  RH WIND       PRES   REMARKS
KALISPELL      FLURRIES   6   0  76 CALM      30.22S
MISSOULA       CLOUDY    11   6  81 CALM      30.23S
BUTTE          FAIR       0  -5  79 SE5       30.04F
MULLAN PASS    LGT SNOW   8   5  87 VRB3      30.01S FOG
ANACONDA         N/A      9  -2  61 CALM      30.08F
DEER LODGE       N/A      3  -6  66 CALM      30.13S
HAMILTON         N/A     14   3  62 MISG      30.20S
PLAINS           N/A      9  -1  63 CALM      30.26R
RONAN            N/A      5   3  92 CALM      30.23
$$

MTZ008-052>055-231800-
SOUTHWEST MONTANA

CITY           SKY/WX    TMP DP  RH WIND       PRES   REMARKS
BOZEMAN        FAIR       8   0  69 N3        30.12S
DILLON         FAIR       1   1 100 SW5       30.06S
ENNIS          SUNNY     10   3  72 S8        30.07S WCI  -1
W YELLOWSTONE  FLURRIES   7   1  78 CALM      29.96S
THREE FORKS      N/A      8   0  70 CALM      30.10S
TWIN BRIDGES     N/A      9  -1  63 CALM      30.07S
$$

MTZ009-010-012-014-046-048-049-054-231800-
EAST SLOPES AND CENTRAL MONTANA

CITY           SKY/WX    TMP DP  RH WIND       PRES   REMARKS
CUT BANK       FAIR      15   7  70 SW28      29.88F WCI  -5
GREAT FALLS    FAIR      12   2  64 S17       29.98F WCI  -5
MALMSTROM AFB  SUNNY     13   7  75 SW21      30.01F WCI  -5
HELENA         PTSUNNY    1  -4  79 CALM      30.13F
AUGUSTA        SNOWSHWR  13   9  81 W43G49    29.89F VSB 5/8 WCI -11
BOWMANS CRNR   FLURRIES   9   3  79 S21       29.94F WCI -11
CHOTEAU          N/A     16   1  53 W8        29.94F WCI   5
FAIRFIELD      FLURRIES  10   3  72 S25       29.94F WCI -10
POWER          FAIR       6   3  86 SW15      29.95F WCI -11
RAYNESFORD     FAIR      20   5  52 SW24G32   29.94F WCI   3
ULM            FAIR      11   1  64 SW8       30.00F WCI   0
WHITE SULPHUR    N/A     -6  -9  84 CALM      30.01F
$$

MTZ011-013-016-021-045-047-050-051-231800-
NORTH CENTRAL MONTANA

CITY           SKY/WX    TMP DP  RH WIND       PRES   REMARKS
HAVRE          FAIR      -8 -14  74 W3        30.07S
LEWISTOWN      FAIR       5  -4  66 SE3       29.97F
N BAR RANCH    FAIR       9  -6  52 S5        29.97S
CHINOOK          N/A     -9 -15  77 N5        30.10S
GEYSER         FAIR      13   3  64 SW10      29.95F WCI   0
STANFORD       FAIR      11   0  61 S5        29.94F
WINIFRED       FAIR       3  -6  66 N3        29.98F
$$

MTZ017>020-022>027-061-062-231800-
NORTHEAST MONTANA

CITY           SKY/WX    TMP DP  RH WIND       PRES   REMARKS
GLASGOW        FAIR      -8 -14  74 SE12      30.15F WCI -27
GLENDIVE       FAIR      -5 -12  72 S13       30.21F WCI -24
JORDAN           N/A     -9 -15  75 CALM      30.14F
MALTA          SUNNY     -9 -13  84 NE5       30.11F
SIDNEY         FLURRIES  -3 -10  72 S14       30.25F WCI -22
WOLF POINT     FAIR      -7 -12  79 CALM      30.22F
PLENTYWOOD       N/A     -2  -8  78 E8        30.15F WCI -17
POPLAR           N/A     -8 -15  71 CALM      30.23F
SCOBEY           N/A      0  -9  65 CALM      30.10F
$$

MTZ028>42-056>058-231800-
SOUTHCENTRAL AND SOUTHEAST MONTANA

CITY           SKY/WX    TMP DP  RH WIND       PRES   REMARKS
BAKER          FAIR      -3  -6  87 E3        30.17F
BILLINGS       FAIR       2  -5  72 SW7       30.09F WCI -11
MILES CITY     FAIR      -9 -14  78 SE12      30.20F WCI -28
BIG TIMBER     SUNNY     12   5  73 W29       30.03F HAZE    WCI  -9
EKALAKA          N/A      8  -4  58 CALM      30.07F
FORSYTH          N/A     -6 -15  65 CALM      30.18F
HARLOWTON      FAIR      10   2  72 W8        30.01F WCI  -2
LAUREL           N/A      1  -8  66 W7        30.12F WCI -11
$$

REGIONAL REPORTS...DAKOTAS

CITY           SKY/WX    TMP DP  RH WIND       PRES   REMARKS
WILLISTON      FAIR      -1  -8  72 SW8       30.23S WCI -15
MINOT          CLOUDY    14   6  70 W13       30.19F WCI   0
DICKINSON      FAIR       7  -2  66 W13       30.16S WCI  -9
BEACH          FAIR       3  -6  66 VRB5      30.20F
CROSBY         CLOUDY     7   1  78 SW14      30.18S WCI -10
TIOGA          FLURRIES   1   0  92 SW9G15    30.19S WCI -14
WATFORD CITY   FAIR       0  -8  71 SW14      30.22F WCI -19
BISMARCK       FAIR      12   2  64 NW10      30.27R WCI  -1
GRAND FORKS    FAIR      14   5  67 NW12      30.20R WCI   0
FARGO          PTSUNNY   17  11  77 W12       30.22R WCI   4
BUFFALO SD       N/A     -2 -10  69 SE5       30.09S
RAPID CITY     FAIR       8   2  76 E3        30.19R
$$

REGIONAL REPORTS...WYOMING/IDAHO/WASHINGTON

CITY           SKY/WX    TMP DP  RH WIND       PRES   REMARKS
GILLETTE       FAIR      12   0  58 CALM      30.06F
SHERIDAN       FAIR       2  -4  76 CALM      30.06F
BUFFALO WY     FAIR       9  -2  61 CALM      29.99F
CODY           FAIR      17   2  51 SW8       30.02F WCI   7
YELLOWSTONE LA   N/A     -2  -6  83 E3        29.94F
IDAHO FALLS    CLOUDY    16  12  84 SW8       30.09S WCI   5
SALMON         FAIR      19   9  65 N5        30.18S
BOISE          FAIR      19  11  70 NW8       30.29R WCI   9
SPOKANE        FAIR      16  10  77 S12       30.28S WCI   3
$$

REGIONAL REPORTS...ALBERTA

CITY           SKY/WX    TMP DP  RH WIND       PRES   REMARKS
CALGARY        MOSUNNY   14   0  52 SW6       29.70F WCI   5
CARDSTON         N/A     25   1  36 SW3         N/A
EDMONTON       SUNNY     10  -2  56 SW9       29.68F WCI  -2
FORT MCMURRAY  PTSUNNY   23   7  50 SW9       29.55F WCI  13
HIGH LEVEL     PTSUNNY   16  10  79 SE2       29.44F
LETHBRIDGE     SUNNY     14   3  62 SW22      29.83F WCI  -4
LLOYDMINSTER   MOSUNNY    9   5  85 S16G23    29.79F WCI  -9
MEDICINE HAT   SUNNY     16   3  57 S15G22    29.91F WCI   1
MILK RIVER       N/A     12   0  57 S2          N/A
ONEFOUR          N/A     -8 -11  84 E10         N/A  WCI -26
PEACE RIVER    PTSUNNY   18  10  73 SW8       29.50S WCI   7
PINCHER CREEK  LGT SNOW  14   9  79 W45G54    29.79F VSB 5/8 WCI -10
WATERTON GATE    N/A     16   3  57 SW40G55     N/A  WCI  -7
$$

REGIONAL REPORTS...SASKATCHEWAN

CITY           SKY/WX    TMP DP  RH WIND       PRES   REMARKS
CYPRESS HILLS    N/A      1  -4  78 S9          N/A  WCI -14
ESTEVAN        CLOUDY    10   5  79 SW9       30.16S WCI  -2
MOOSE JAW        N/A     16   7  67 SW14        N/A  WCI   1
PRINCE ALBERT  CRYSTALS   3   0  85 SW9       30.02F WCI -11
REGINA         MOSUNNY    7   3  85 S8        30.09F WCI  -6
ROCKGLEN         N/A      5   1  85 SW13        N/A  WCI -12
SASKATOON      MOSUNNY    5   1  85 SW7       30.03F WCI  -7
SWIFT CURRENT  FLURRIES   7   3  85 S21       29.96F WCI -13
VAL MARIE        N/A     -6 -11  77 S1          N/A
$$




USA.gov is the U.S. government's official web portal to all federal, state and local government web resources and services.